KC1RCJ Weather Reports


time (UTC)temp
C
wind
direction
speed
KPH
gust
KPH
rain 1hr
cm
rain 24hr
cm
rain mn
cm
humidity
%
barometer
mb
20260507134528 10 360 8.0 16.1 0.00 2.44 0.61 76 1004.8
20260507133027 10 331 12.9 20.9 0.00 2.44 0.61 77 1005.2
20260507131538 10 294 16.1 22.5 0.00 2.44 0.61 79 1005.3
20260507130040 10 330 16.1 24.1 0.00 2.44 0.61 80 1005.0
20260507124530 9 325 8.0 17.7 0.00 2.44 0.61 83 1005.0
20260507123030 9 294 14.5 24.1 0.00 2.44 0.61 84 1004.8
20260507121530 8 313 12.9 16.1 0.00 2.44 0.61 86 1004.8
20260507120030 8 323 6.4 14.5 0.00 2.44 0.61 86 1004.8
20260507114531 8 291 6.4 12.9 0.00 2.44 0.61 89 1005.4
20260507113030 8 294 6.4 12.9 0.00 2.44 0.61 88 1005.7
20260507111530 8 271 6.4 17.7 0.00 2.44 0.61 87 1005.9
20260507110030 8 287 12.9 20.9 0.00 2.44 0.61 86 1005.6
20260507104531 8 284 12.9 22.5 0.00 2.44 0.61 87 1005.6
20260507103031 7 295 12.9 22.5 0.00 2.44 0.61 88 1004.8
20260507101528 8 269 14.5 25.7 0.00 2.44 0.61 88 1004.6
20260507100036 8 317 16.1 24.1 0.00 2.44 0.61 88 1004.2
20260507094528 8 294 16.1 24.1 0.00 2.44 0.61 90 1004.1
20260507093028 8 320 20.9 29.0 0.00 2.44 0.61 89 1004.0
20260507091535 8 310 17.7 25.7 0.00 2.44 0.61 89 1004.6
20260507090028 8 294 17.7 29.0 0.00 2.44 0.61 91 1004.5
20260507084530 8 283 12.9 22.5 0.00 2.44 0.61 93 1004.2
20260507083028 8 312 14.5 20.9 0.00 2.44 0.61 92 1003.9
20260507081530 8 306 16.1 25.7 0.00 2.44 0.61 92 1003.7
20260507080031 8 309 20.9 30.6 0.03 2.44 0.61 92 1003.9
20260507074528 8 306 12.9 22.5 0.03 2.44 0.61 93 1003.7
20260507073031 8 297 14.5 24.1 0.03 2.44 0.61 93 1003.6
20260507071533 9 300 19.3 32.2 0.03 2.44 0.61 94 1003.7
20260507070033 9 303 12.9 19.3 0.03 2.41 0.58 94 1003.3
20260507064550 9 307 16.1 22.5 0.33 2.41 0.58 94 1003.4
20260507063034 9 282 16.1 27.4 0.56 2.41 0.58 95 1003.5
20260507061530 9 314 16.1 20.9 0.56 2.41 0.58 96 1003.3
20260507060030 9 319 11.3 24.1 0.53 2.39 0.56 97 1003.0
20260507054527 9 228 9.7 17.7 0.23 2.08 0.25 96 1004.2
20260507053030 9 202 8.0 16.1 0.00 1.85 0.03 96 1003.2
20260507051528 9 221 8.0 25.7 0.00 1.85 0.03 96 1003.2
20260507050039 10 196 8.0 37.0 0.03 1.85 0.03 96 1003.3
20260507044532 10 188 11.3 24.1 0.03 1.85 0.03 96 1003.0
20260507043030 10 188 11.3 20.9 0.03 1.85 0.03 96 1002.8
20260507041529 10 150 11.3 19.3 0.03 1.85 0.03 96 1003.2
20260507040030 10 169 9.7 29.0 0.00 1.83 0.00 96 1003.5
20260507034530 10 171 14.5 30.6 0.00 1.83 1.83 96 1003.5
20260507033028 10 167 14.5 29.0 0.08 1.83 1.83 95 1003.5
20260507031533 10 191 12.9 32.2 0.25 1.83 1.83 96 1003.7
20260507030035 11 216 17.7 40.2 0.30 1.83 1.83 95 1003.9
20260507024530 10 159 16.1 33.8 0.43 1.83 1.83 96 1004.1
20260507023030 10 195 12.9 25.7 0.51 1.75 1.75 96 1004.5
20260507021527 10 178 12.9 24.1 0.51 1.57 1.57 95 1004.7
20260507020029 10 208 11.3 25.7 0.56 1.52 1.52 95 1004.7
20260507014529 10 179 17.7 32.2 0.51 1.40 1.40 95 1005.0
20260507013028 10 171 12.9 32.2 0.43 1.24 1.24 95 1005.4
20260507011531 10 190 16.1 27.4 0.38 1.07 1.07 94 1005.7
20260507010043 10 158 17.7 29.0 0.41 0.97 0.97 94 1005.8
20260507004533 11 159 12.9 32.2 0.46 0.89 0.89 94 1006.1
20260507003029 11 205 22.5 51.5 0.51 0.79 0.79 94 1006.4
20260507001531 11 182 11.3 32.2 0.48 0.69 0.69 94 1006.6
20260507000028 11 185 16.1 30.6 0.38 0.56 0.56 94 1006.7
20260506234531 11 184 17.7 33.8 0.23 0.41 0.41 93 1006.9
20260506233030 11 180 19.3 37.0 0.13 0.28 0.28 93 1007.0
20260506231531 11 178 14.5 32.2 0.08 0.20 0.20 94 1007.0
20260506230039 10 173 16.1 37.0 0.10 0.18 0.18 92 1006.8
20260506224536 11 205 14.5 33.8 0.13 0.18 0.18 92 1007.0
20260506223030 11 181 11.3 25.7 0.13 0.15 0.15 93 1007.2
20260506221528 11 188 17.7 29.0 0.10 0.13 0.13 93 1007.3
20260506220036 11 163 20.9 30.6 0.08 0.08 0.08 92 1007.7
20260506214529 11 163 12.9 32.2 0.05 0.05 0.05 92 1007.9
20260506213030 11 161 17.7 37.0 0.03 0.03 0.03 91 1007.9
20260506211533 11 193 14.5 40.2 0.03 0.03 0.03 90 1007.4
20260506210031 11 154 20.9 33.8 0.00 0.00 0.00 89 1008.4
20260506204534 11 204 12.9 38.6 0.00 0.00 0.00 88 1008.2
20260506203031 12 163 11.3 22.5 0.00 0.00 0.00 86 1008.1
20260506201537 12 170 11.3 22.5 0.00 0.00 0.00 87 1007.9
20260506200030 12 220 14.5 30.6 0.00 0.00 0.00 86 1008.0
20260506194528 12 163 20.9 53.1 0.00 0.00 0.00 86 1008.0
20260506193030 12 175 16.1 37.0 0.00 0.00 0.00 86 1008.0
20260506191530 12 181 22.5 40.2 0.00 0.00 0.00 85 1008.3
20260506190030 12 184 17.7 35.4 0.00 0.00 0.00 86 1008.2
20260506184532 12 202 16.1 37.0 0.00 0.00 0.00 87 1008.5
20260506183032 11 136 14.5 30.6 0.00 0.00 0.00 86 1008.6
20260506181531 12 152 17.7 37.0 0.00 0.00 0.00 86 1008.8
20260506180032 12 219 12.9 41.8 0.00 0.00 0.00 86 1008.9
20260506174533 12 234 14.5 35.4 0.00 0.00 0.00 85 1009.1
20260506173030 12 203 19.3 38.6 0.00 0.00 0.00 85 1009.2
20260506171539 13 197 19.3 35.4 0.00 0.00 0.00 83 1009.4
20260506170029 13 199 17.7 38.6 0.00 0.00 0.00 83 1009.5
20260506164531 13 143 20.9 40.2 0.00 0.00 0.00 83 1009.4
20260506163030 13 257 22.5 40.2 0.00 0.00 0.00 83 1009.8
20260506161532 14 215 19.3 40.2 0.00 0.00 0.00 83 1009.9
20260506160031 14 198 14.5 29.0 0.00 0.00 0.00 82 1009.7
20260506154534 13 206 20.9 37.0 0.00 0.00 0.00 84 1009.7
20260506153030 13 161 17.7 35.4 0.00 0.00 0.00 84 1009.5
20260506151533 13 148 17.7 35.4 0.00 0.00 0.00 86 1009.8
20260506150033 12 189 11.3 29.0 0.00 0.00 0.00 88 1010.1
20260506144531 12 218 11.3 25.7 0.00 0.00 0.00 89 1010.4
20260506143032 12 182 12.9 27.4 0.00 0.00 0.00 90 1010.7
20260506141532 11 158 12.9 25.7 0.00 0.00 0.00 91 1010.6
20260506140034 10 146 19.3 29.0 0.00 0.00 0.00 93 1010.5